Location: Unspecified
(0.0000°N, 0.0000°E)
Time: 14:51:05
(UTC+00:00)

Vanguard 2 - All Passes

Search period start: 02 February 2023 00:00
Search period end: 12 February 2023 00:00
Orbit: 553 x 2930 km, 32.9° (Epoch: 01 February)

Date Brightness Start Highest point End Pass type
(mag) Time Alt. Az. Time Alt. Az. Time Alt. Az.
02 Feb - 00:43:56 10° NNW 00:53:16 16° N 01:02:27 10° NE visible
02 Feb - 02:58:07 10° NNW 03:10:44 24° NNE 03:20:47 10° ENE visible
02 Feb - 05:10:10 10° NW 05:24:34 53° NNE 05:33:28 10° ESE visible
02 Feb - 07:23:54 10° WNW 07:34:44 48° SW 07:41:18 10° SE daylight
02 Feb - 16:13:56 10° S 16:18:01 19° SE 16:23:23 10° E daylight
02 Feb - 18:19:23 10° SW 18:26:34 88° NW 18:39:03 10° NE visible
02 Feb - 20:29:13 10° W 20:38:16 33° NNW 20:51:27 10° NE visible
02 Feb - 22:44:43 10° NW 22:53:45 18° N 23:04:03 10° NNE visible
03 Feb - 01:02:03 10° NNW 01:12:08 17° N 01:21:46 10° NE visible
03 Feb - 03:14:49 10° NNW 03:28:49 30° NNE 03:39:24 10° E visible
03 Feb - 05:27:04 10° NW 05:41:51 71° NNE 05:50:43 10° ESE visible
03 Feb - 07:42:00 10° W 07:51:26 33° SW 07:57:34 10° SSE daylight
03 Feb - 16:29:44 10° SSW 16:34:42 29° SE 16:42:03 10° E daylight
03 Feb - 18:36:23 10° WSW 18:43:40 64° NNW 18:56:06 10° NE visible
03 Feb - 20:47:28 10° WNW 20:56:08 26° NNW 21:08:03 10° NNE visible
03 Feb - 23:04:04 10° NW 23:12:28 16° N 23:21:43 10° NNE visible
04 Feb - 01:19:30 10° NNW 01:30:50 20° NNE 01:41:20 10° NE visible
04 Feb - 03:31:29 10° NW 03:46:40 38° NNE 03:57:35 10° E visible
04 Feb - 05:44:12 10° NW 05:58:56 88° SW 06:07:40 10° SE visible
04 Feb - 08:00:41 10° W 08:08:10 22° SW 08:13:30 10° S daylight
04 Feb - 16:45:57 10° SSW 16:51:22 46° SE 17:00:03 10° ENE daylight
04 Feb - 18:53:40 10° W 19:00:58 46° NNW 19:12:54 10° NE visible
04 Feb - 21:06:09 10° WNW 21:14:14 21° NNW 21:24:40 10° NNE visible
04 Feb - 23:23:03 10° NNW 23:31:19 15° N 23:40:12 10° NNE night (unlit)
05 Feb - 01:36:31 10° NNW 01:49:18 23° NNE 02:00:42 10° ENE visible
05 Feb - 03:48:12 10° NW 04:04:18 49° NNE 04:15:22 10° E visible
05 Feb - 06:01:36 10° WNW 06:15:52 66° SW 06:24:24 10° SE daylight
05 Feb - 08:20:19 10° WSW 08:25:01 14° SW 08:28:48 10° S daylight
05 Feb - 17:02:29 10° SW 17:08:06 73° SE 17:17:34 10° ENE daylight
05 Feb - 19:11:18 10° W 19:18:28 34° NNW 19:29:31 10° NE visible
05 Feb - 21:25:14 10° NW 21:32:32 17° N 21:41:27 10° NNE visible
05 Feb - 23:41:18 10° NNW 23:50:10 16° N 23:59:30 10° NE night (unlit)
06 Feb - 01:53:17 10° NNW 02:07:30 28° NNE 02:19:42 10° ENE visible
06 Feb - 04:05:00 10° NW 04:21:43 63° NNE 04:32:49 10° ESE visible
06 Feb - 06:19:22 10° WNW 06:32:39 49° SW 06:40:54 10° SSE daylight
06 Feb - 15:13:54 10° S 15:16:54 16° SE 15:20:33 10° ESE daylight
06 Feb - 17:19:18 10° WSW 17:25:01 75° NNW 17:34:43 10° NE daylight
06 Feb - 19:29:19 10° WNW 19:36:09 25° NNW 19:45:59 10° NNE visible
06 Feb - 21:44:33 10° NNW 21:51:03 14° N 21:58:36 10° NNE visible
06 Feb - 23:58:50 10° NNW 00:08:55 18° NNE 00:19:18 10° NE night (unlit)
07 Feb - 02:09:57 10° NNW 02:25:27 35° NNE 02:38:14 10° E visible
07 Feb - 04:21:58 10° NW 04:38:57 80° NE 04:49:58 10° ESE visible
07 Feb - 06:37:34 10° W 06:49:25 35° SW 06:57:11 10° SSE daylight
07 Feb - 15:29:34 10° SSW 15:33:34 28° SE 15:39:04 10° E daylight
07 Feb - 17:36:23 10° WSW 17:42:08 50° NNW 17:51:33 10° NE daylight
07 Feb - 19:47:49 10° WNW 19:54:02 19° NNW 20:02:19 10° NNE visible
07 Feb - 22:03:41 10° NNW 22:09:43 13° N 22:16:30 10° NNE visible
08 Feb - 00:15:52 10° NNW 00:27:27 21° NNE 00:39:07 10° ENE visible
08 Feb - 02:26:36 10° NW 02:43:10 44° NNE 02:56:21 10° E visible
08 Feb - 04:39:09 10° WNW 04:56:01 82° SW 05:06:51 10° SE visible
08 Feb - 06:56:21 10° W 07:06:15 25° SW 07:13:12 10° SSE daylight
08 Feb - 15:45:48 10° SW 15:50:15 48° SE 15:56:51 10° ENE daylight
08 Feb - 17:53:50 10° W 17:59:27 34° NNW 18:08:08 10° NE daylight
08 Feb - 20:06:51 10° NW 20:12:06 15° N 20:18:35 10° NNE visible
08 Feb - 22:22:04 10° NNW 22:28:26 13° N 22:35:31 10° NNE visible
09 Feb - 00:32:37 10° NNW 00:45:43 25° NNE 00:58:36 10° ENE visible
09 Feb - 02:43:17 10° NW 03:00:40 56° NNE 03:14:03 10° ESE visible
09 Feb - 04:56:37 10° WNW 05:12:56 64° SW 05:23:33 10° SE visible
09 Feb - 07:15:54 10° WSW 07:23:13 18° SW 07:28:51 10° S daylight
09 Feb - 16:02:23 10° SW 16:07:00 84° SE 16:14:09 10° ENE daylight
09 Feb - 18:11:42 10° WNW 18:16:57 24° NNW 18:24:28 10° NNE daylight
09 Feb - 20:26:31 10° NNW 20:30:22 12° N 20:34:46 10° NNE visible
09 Feb - 22:39:36 10° NNW 22:47:07 15° NNE 22:55:28 10° NE visible
10 Feb - 00:49:14 10° NNW 01:03:43 31° NNE 01:17:38 10° E visible
10 Feb - 03:00:06 10° NW 03:18:00 70° NE 03:31:27 10° ESE visible
10 Feb - 05:14:27 10° WNW 05:29:49 49° SW 05:40:02 10° SSE visible
10 Feb - 07:36:53 10° SW 07:40:24 12° SW 07:43:29 10° SSW daylight
10 Feb - 14:13:30 10° S 14:15:56 15° SE 14:18:40 10° ESE daylight
10 Feb - 16:19:19 10° WSW 16:23:56 57° NNW 16:31:05 10° NE daylight
10 Feb - 18:30:07 10° NW 18:34:37 17° NNW 18:40:28 10° NNE visible
10 Feb - 20:46:43 10° N 20:48:47 10° N 20:50:59 10° N visible
10 Feb - 22:56:31 10° NNW 23:05:38 17° NNE 23:15:46 10° NE night (unlit)
11 Feb - 01:05:46 10° NNW 01:21:28 39° NNE 01:36:09 10° E visible
11 Feb - 03:17:04 10° NW 03:35:10 86° NE 03:48:32 10° SE visible
11 Feb - 05:32:44 10° W 05:46:42 37° SW 05:56:20 10° SSE visible
11 Feb - 14:29:10 10° SSW 14:32:41 28° SE 14:36:58 10° E daylight
11 Feb - 16:36:36 10° W 16:41:04 35° NNW 16:47:39 10° NE daylight
11 Feb - 18:49:28 10° NNW 18:52:27 12° NNW 18:55:56 10° N visible
11 Feb - 21:06:18 10° N 21:07:19 10° N 21:08:23 10° NNE visible
11 Feb - 23:13:07 10° NNW 23:23:54 21° NNE 23:35:51 10° ENE night (unlit)
